FREGAT DEB, 45820

Orbit data source: Space-Track

FREGAT DEB, 45820 is space debris in LEO originally from a launch on Mon, 18 Jul 2011 UTC launched from the Tyuratam Missile And Space Complex (TTMTR). Debris objects in space refer to the collection of defunct objects orbiting the Earth. Examples of debris include non-operational satellites, rocket bodies, and fragments generated from explosions, collisions, or faulty payload assembly.

Loading next visibility...
Identifier
45820, 2011-037BE
Orbit
LEO
Country
Flag of CISCIS
Related business
Manufacturer
Lavochkin
Mission
Spacecraft
Bus & Motor
Unknown
Mass
Unknown
Launch date (UTC)
2011-07-18 (15 years ago)
Launch vehicle
Unknown
Launch site
Tyuratam Missile And Space Complex (TTMTR)
Object type
Payload
Rocket body
Debris
Shape & HBR
Unknown shape, 0.1 m
Radar Cross Section
Medium (>0.1 m² and <1 m²)

Expand to show TLE details & history
Last TLE update: 5 days ago

TLE from 5 days ago
0 FREGAT DEB
1 45820U 11037BE  26251.17791163  .00002330  00000-0  14912-2 0  9999
2 45820  51.5215 175.6052 1485795 196.0433 158.7995 11.77672656263284
Epoch: 2026-09-08T04:16Z
TLE epoch observation values (Epoch: 2026-09-08T04:16:11.564Z)
Latitude
-0°
Longitude
124.30896°
Altitude
2,932.775 km
Speed
6.067 km/s
True Right ascension
11h 42m 25s
True Declination
0° 00' 00"
Sunlit
Object was in daylight at epoch
Visualization orbit readout
Latitude
Unknown
Longitude
Unknown
Altitude
Unknown
Speed
Unknown
Apparent Right ascension
Unknown
Apparent Declination
Unknown
Sunlit
N/A
Visualization observer readout
Local Sidereal Time
09:12:39
Azimuth
Unknown
Elevation
Unknown
Doppler factor
Unknown
Orbital elements
Apogee altitude
2,995.413 km
Perigee altitude
570.3 km
Semi-major axis
8,160.993 km
Eccentricity
0.14858
Inclination
51.5215°
RAAN
175.6052°
Arg. of periapsis
196.0433°
True anomaly
164.0367°
Mean anomaly
158.7995°
Eccentric anomaly
161.50062°
Mean motion
2.94394 °/min
Orbital period
122.29 mins
BSTAR
0.0014912
Loading maneuver chart data...
Computing Atmospheric mass density...
Loading historical data...
Loading historical data...
Loading historical data...
Loading historical data...
Loading historical data...
Loading historical data...
Loading historical data...

Documentation

Showing up to 5 results
|